Kankakee, IL

10:24 AM CST on December 12, 2019 (GMT -0600)
Greater Kankakee

Weather History for KIKK - November, 2019

Change the Weather History Date:

Friday, November 22, 2019

  Actual Average Record
Temperature  
Mean Temperature 33 °F -  
Max Temperature 40 °F 44 °F 69 °F (2010)
Min Temperature 26 °F 28 °F 3 °F (2015)
Degree Days  
Heating Degree Days 32    
Moisture  
Dew Point 27 °F    
Average Humidity 76    
Maximum Humidity 95    
Minimum Humidity 60    
Precipitation  
Precipitation 0.00 in - - ()
Sea Level Pressure  
Sea Level Pressure 30.14 in    
Wind  
Wind Speed 8 mph (North)    
Max Wind Speed 16 mph    
Max Gust Speed 25 mph    
Visibility 10 miles    
Events      
Averages and records for this station are not official NWS values.
T = Trace of Precipitation, MM = Missing Value Source: NWS Daily Summary

Daily Weather History Graph

Daily Weather History Graph

Search for Another Location

Airport or City:

Astronomy

Nov. 22, 2019 Rise Set
Actual Time 6:47 AM CST 4:27 PM CST
Civil Twilight 6:16 AM CST 4:57 PM CST
Nautical Twilight 5:43 AM CST 5:31 PM CST
Astronomical Twilight 5:10 AM CST 6:04 PM CST
Moon 1:49 AM CST (11/22) 2:30 PM CST (11/22)
Length of Visible Light 10h 40m
Length of Day
9h 40m
Waning Crescent, 19% of the Moon is Illuminated
Nov 22
Waning Crescent
Nov 26
New
Dec 4
First Quarter
Dec 11
Full
Dec 18
Last Quarter

Hourly Weather History & Observations

Time (CST) Temp. Windchill Dew Point Humidity Pressure Visibility Wind Dir Wind Speed Gust Speed Precip Events Conditions
12:15 AM 39.6 °F 33.0 °F 32.7 °F 76% 30.05 in 10.0 mi NW 10.4 mph - N/A   Overcast
12:35 AM 39.4 °F 31.4 °F 32.2 °F 75% 30.07 in 10.0 mi NW 13.8 mph - N/A   Overcast
12:55 AM 39.2 °F 31.6 °F 32.0 °F 75% 30.07 in 10.0 mi NW 12.7 mph 19.6 mph N/A   Overcast
1:15 AM 38.7 °F 31.8 °F 31.6 °F 76% 30.07 in 10.0 mi NW 10.4 mph - N/A   Overcast
1:35 AM 38.3 °F 30.5 °F 30.6 °F 74% 30.06 in 10.0 mi NNW 12.7 mph - N/A   Overcast
1:55 AM 37.8 °F 29.0 °F 30.2 °F 74% 30.06 in 10.0 mi NNW 15.0 mph 25.3 mph N/A   Overcast
2:15 AM 37.4 °F 28.5 °F 30.2 °F 75% 30.07 in 10.0 mi NNW 15.0 mph - N/A   Overcast
2:35 AM 37.4 °F 29.8 °F 30.4 °F 76% 30.08 in 10.0 mi NW 11.5 mph 17.3 mph N/A   Overcast
2:55 AM 36.7 °F 27.2 °F 29.5 °F 75% 30.07 in 10.0 mi NNW 16.1 mph - N/A   Overcast
3:15 AM 36.5 °F 27.8 °F 29.3 °F 75% 30.09 in 10.0 mi NNW 13.8 mph 18.4 mph N/A   Overcast
3:55 AM 36.3 °F 30.1 °F 29.1 °F 75% 30.10 in 10.0 mi NNW 8.1 mph - N/A   Overcast
4:15 AM 36.0 °F 29.0 °F 28.6 °F 75% 30.11 in 10.0 mi NW 9.2 mph - N/A   Overcast
4:35 AM 35.6 °F 29.2 °F 28.2 °F 75% 30.11 in 10.0 mi NW 8.1 mph - N/A   Overcast
4:55 AM 34.7 °F 29.6 °F 27.7 °F 76% 30.12 in 10.0 mi NW 5.8 mph - N/A   Overcast
5:15 AM 34.5 °F 29.4 °F 27.5 °F 76% 30.13 in 10.0 mi NW 5.8 mph - N/A   Overcast
5:35 AM 33.8 °F 27.0 °F 27.5 °F 78% 30.14 in 10.0 mi NW 8.1 mph - N/A   Overcast
5:55 AM 32.7 °F 26.4 °F 27.0 °F 79% 30.14 in 10.0 mi NNW 6.9 mph - N/A   Mostly Cloudy
6:15 AM 32.9 °F 25.3 °F 27.5 °F 81% 30.15 in 10.0 mi NNW 9.2 mph - N/A   Overcast
6:35 AM 32.4 °F 25.3 °F 27.5 °F 82% 30.15 in 10.0 mi NNW 8.1 mph - N/A   Overcast
6:55 AM 32.2 °F 23.8 °F 27.9 °F 84% 30.16 in 10.0 mi NNW 10.4 mph - N/A   Overcast
7:15 AM 32.0 °F 24.2 °F 27.3 °F 83% 30.17 in 10.0 mi NNW 9.2 mph - N/A   Scattered Clouds
7:35 AM 32.0 °F 24.2 °F 26.4 °F 80% 30.18 in 10.0 mi NNW 9.2 mph - N/A   Clear
7:55 AM 32.2 °F 23.2 °F 26.1 °F 78% 30.19 in 10.0 mi NW 11.5 mph - N/A   Clear
8:15 AM 32.4 °F 24.0 °F 25.5 °F 76% 30.20 in 10.0 mi NNW 10.4 mph - N/A   Clear
8:35 AM 33.1 °F 26.1 °F 25.9 °F 75% 30.20 in 10.0 mi NNW 8.1 mph - N/A   Clear
9:15 AM 34.7 °F 27.5 °F 26.2 °F 71% 30.20 in 10.0 mi North 9.2 mph - N/A   Clear
9:35 AM 35.1 °F 28.6 °F 26.6 °F 71% 30.21 in 10.0 mi NNW 8.1 mph - N/A   Clear
9:55 AM 35.4 °F 29.0 °F 26.6 °F 70% 30.22 in 10.0 mi North 8.1 mph - N/A   Clear
10:35 AM 35.6 °F - 26.4 °F 69% 30.21 in 10.0 mi Calm Calm - N/A   Mostly Cloudy
10:55 AM 35.8 °F - 26.2 °F 68% 30.21 in 10.0 mi Calm Calm - N/A   Mostly Cloudy
11:15 AM 35.8 °F - 26.4 °F 69% 30.21 in 10.0 mi Calm Calm - N/A   Mostly Cloudy
11:35 AM 35.8 °F 30.9 °F 26.2 °F 68% 30.21 in 10.0 mi NNE 5.8 mph - N/A   Mostly Cloudy
11:55 AM 37.8 °F 35.3 °F 25.5 °F 61% 30.20 in 10.0 mi NNW 3.5 mph - N/A   Scattered Clouds
12:15 PM 37.9 °F 33.5 °F 26.6 °F 64% 30.20 in 10.0 mi NNE 5.8 mph - N/A   Scattered Clouds
12:35 PM 38.7 °F 36.3 °F 26.2 °F 61% 30.20 in 10.0 mi East 3.5 mph - N/A   Clear
12:55 PM 38.7 °F - 26.1 °F 61% 30.19 in 10.0 mi Calm Calm - N/A   Scattered Clouds
1:15 PM 40.1 °F 38.0 °F 27.9 °F 62% 30.18 in 10.0 mi NNE 3.5 mph - N/A   Scattered Clouds
1:35 PM 39.0 °F 34.8 °F 26.6 °F 61% 30.17 in 10.0 mi North 5.8 mph - N/A   Scattered Clouds
1:55 PM 39.6 °F 37.4 °F 26.8 °F 60% 30.16 in 10.0 mi ENE 3.5 mph - N/A   Clear
2:15 PM 40.3 °F 35.5 °F 27.5 °F 60% 30.16 in 10.0 mi North 6.9 mph - N/A   Clear
2:35 PM 39.6 °F 35.4 °F 27.3 °F 62% 30.14 in 10.0 mi NE 5.8 mph - N/A   Clear
2:55 PM 39.6 °F 34.7 °F 27.3 °F 62% 30.14 in 10.0 mi NE 6.9 mph - N/A   Clear
3:15 PM 39.6 °F 35.4 °F 27.1 °F 61% 30.14 in 10.0 mi ENE 5.8 mph - N/A   Clear
3:35 PM 38.3 °F 33.9 °F 27.0 °F 64% 30.14 in 10.0 mi ENE 5.8 mph - N/A   Clear
3:55 PM 36.7 °F 32.0 °F 27.7 °F 70% 30.14 in 10.0 mi NE 5.8 mph - N/A   Clear
4:15 PM 35.2 °F 31.2 °F 27.9 °F 74% 30.14 in 10.0 mi NE 4.6 mph - N/A   Clear
4:35 PM 33.8 °F 29.6 °F 27.0 °F 76% 30.14 in 10.0 mi ENE 4.6 mph - N/A   Clear
4:55 PM 32.5 °F 28.1 °F 26.4 °F 78% 30.15 in 10.0 mi East 4.6 mph - N/A   Clear
5:10 PM 32.0 °F 25.6 °F 26.1 °F 79% 30.15 in 10.0 mi East 6.9 mph - N/A   Clear
5:35 PM 31.6 °F 27.0 °F 25.7 °F 79% 30.15 in 10.0 mi ESE 4.6 mph - N/A   Clear
6:00 PM 31.3 °F 27.9 °F 26.1 °F 81% 30.15 in 10.0 mi ESE 3.5 mph - N/A   Clear
6:20 PM 30.0 °F 25.2 °F 24.8 °F 81% 30.14 in 10.0 mi ESE 4.6 mph - N/A   Clear
6:35 PM 29.8 °F 24.9 °F 25.2 °F 83% 30.14 in 10.0 mi SE 4.6 mph - N/A   Clear
6:55 PM 29.5 °F 25.9 °F 25.2 °F 84% 30.14 in 10.0 mi ESE 3.5 mph - N/A   Clear
7:15 PM 30.0 °F - 25.5 °F 83% 30.14 in 10.0 mi Calm Calm - N/A   Clear
7:30 PM 29.7 °F - 25.7 °F 85% 30.13 in 10.0 mi Calm Calm - N/A   Clear
7:55 PM 29.8 °F - 25.2 °F 83% 30.13 in 10.0 mi Calm Calm - N/A   Clear
8:35 PM 29.7 °F - 25.7 °F 85% 30.12 in 10.0 mi Calm Calm - N/A   Clear
8:55 PM 29.1 °F - 25.7 °F 87% 30.12 in 10.0 mi Calm Calm - N/A   Clear
9:15 PM 28.9 °F - 25.7 °F 88% 30.12 in 10.0 mi Calm Calm - N/A   Clear
9:35 PM 28.4 °F 24.6 °F 25.2 °F 88% 30.12 in 10.0 mi South 3.5 mph - N/A   Clear
9:55 PM 28.4 °F - 25.3 °F 88% 30.12 in 10.0 mi Calm Calm - N/A   Clear
10:15 PM 27.9 °F - 24.6 °F 88% 30.11 in 10.0 mi Calm Calm - N/A   Clear
10:35 PM 26.4 °F - 24.3 °F 92% 30.10 in 10.0 mi Calm Calm - N/A   Clear
10:55 PM 26.4 °F - 25.0 °F 94% 30.09 in 10.0 mi Calm Calm - N/A   Clear
11:15 PM 27.5 °F - 26.1 °F 94% 30.09 in 10.0 mi Calm Calm - N/A   Clear
11:55 PM 27.9 °F - 26.6 °F 95% 30.07 in 10.0 mi Calm Calm - N/A   Clear